Location: *
(40.8998°S, 106.5852°E)
Time: 12:41:18
(UTC+00:00)

Daily predictions for brighter satellites

Satellite Brightness Start Highest point End
(mag) Time Altitude Azimuth Time Altitude Azimuth Time Altitude Azimuth
STARLINK-31 4.3 12:00:18 10° SW 12:04:08 37° SSE 12:05:03 32° ESE
Shenzhou-11 Module 1.6 12:01:36 10° W 12:04:15 73° SSW 12:04:17 73° S
CZ-2D R/B 3.5 12:01:10 10° SSE 12:04:59 45° E 12:08:44 10° N
STARLINK-69 4.2 12:02:06 10° SW 12:06:00 40° SSE 12:06:52 35° ESE
STARLINK-1016 4.3 12:03:21 10° SW 12:07:20 39° SSE 12:08:13 34° ESE
STARLINK-21 4.2 12:03:36 10° SW 12:07:29 39° SSE 12:08:16 35° ESE
STARLINK-45 4.1 12:05:26 10° SW 12:09:22 43° SSE 12:10:06 39° ESE
Meteor 2-5 Rocket 3.7 12:03:52 10° N 12:09:28 87° E 12:15:16 10° S
STARLINK-70 4.1 12:06:59 10° SW 12:10:55 43° SSE 12:11:35 39° ESE
STARLINK-1008 4.2 12:08:17 10° SW 12:12:19 41° SSE 12:12:59 38° SE
STARLINK-76 4.1 12:08:33 10° SW 12:12:29 42° SSE 12:13:02 40° SE
BREEZE-M DEB (TANK) 3.8 12:12:17 10° WNW 12:13:36 14° NW 12:14:06 13° NNW
STARLINK-23 4.0 12:10:12 10° SW 12:14:08 43° SSE 12:14:38 41° SE
STARLINK-1134 4.5 12:11:17 10° NNW 12:14:32 33° NNE 12:14:32 33° NNE
STARLINK-32 4.0 12:11:50 10° SW 12:15:47 44° SSE 12:16:13 43° SE
Cosmos 44 3.6 12:11:22 10° SSW 12:16:26 49° SE 12:17:33 41° E
STARLINK-40 4.0 12:13:29 10° SW 12:17:28 45° SSE 12:17:48 44° SE
CZ-2C R/B 2.6 12:12:09 10° NNE 12:17:33 79° ESE 12:23:10 10° S
STARLINK-1170 4.0 12:13:53 10° WNW 12:17:35 53° SSW 12:18:55 33° SSE
Cosmos 2082 Rocket 3.0 12:13:53 10° S 12:18:53 31° SE 12:19:07 30° ESE
STARLINK-44 3.9 12:15:09 10° SW 12:19:08 47° SSE 12:19:24 46° SE
STARLINK-1162 4.4 12:15:42 10° NNW 12:18:59 37° NNE 12:18:59 37° NNE
STARLINK-1135 4.4 12:16:09 10° NNW 12:19:19 35° NNE 12:19:19 35° NNE
STARLINK-37 3.8 12:16:54 10° SW 12:20:54 51° SSE 12:21:09 50° SE
MOS 1 Rocket 3.4 12:15:43 10° NNE 12:20:55 79° ESE 12:25:54 10° S
Cosmos 1452 Rocket 4.0 12:16:44 10° NNW 12:21:59 62° WSW 12:27:18 10° SSE
STARLINK-1150 4.0 12:18:46 10° WNW 12:22:18 48° SW 12:23:17 37° SSE
STARLINK-1025 4.0 12:18:13 10° SW 12:22:19 48° SSE 12:22:33 47° SE
STARLINK-36 3.9 12:18:24 10° SW 12:22:24 49° SSE 12:22:32 49° SE
CSL-04 Debris 4.2 12:17:44 10° SSE 12:23:13 58° E 12:28:39 10° N
Lacrosse 5 2.7 12:19:14 10° WNW 12:24:14 51° SW 12:27:58 18° SSE
STARLINK-68 3.7 12:20:14 10° SW 12:24:17 55° SE 12:24:23 55° SE
STARLINK-1157 4.4 12:20:36 10° NNW 12:23:47 38° NNE 12:23:47 38° NNE
STARLINK-1141 4.4 12:21:03 10° NNW 12:24:05 37° NNE 12:24:05 37° NNE
STARLINK-63 3.8 12:21:49 10° SW 12:25:52 54° SE 12:25:53 54° SE
STARLINK-1017 3.9 12:23:10 10° SW 12:27:18 52° SSE 12:27:19 52° SE
STARLINK-35 3.8 12:23:22 10° SW 12:27:20 53° SSE 12:27:20 53° SSE
USA 215 3.9 12:28:09 34° NE 12:28:09 34° NE 12:33:52 10° N
Lacrosse 5 rocket 2.0 12:24:23 10° SSW 12:27:53 39° SSE 12:27:53 39° SSE
DMSP B5D2-2 4.3 12:23:16 10° N 12:28:33 70° WNW 12:33:55 10° SSW
STARLINK-51 3.8 12:25:02 10° SW 12:28:56 55° SSE 12:28:56 55° SSE
STARLINK-1159 4.4 12:25:30 10° NNW 12:28:35 39° N 12:28:35 39° N
STARLINK-1140 4.5 12:25:56 10° NNW 12:28:52 37° N 12:28:52 37° N
Okean 1-7 Rocket 4.2 12:25:56 10° NNW 12:30:21 58° W 12:34:54 10° S
STARLINK-30 3.8 12:26:40 10° SW 12:30:31 56° SSE 12:30:31 56° SSE
YAOGAN 1 2.5 12:27:03 10° SSE 12:31:28 86° WSW 12:35:50 10° NNW
Nadezhda 1 Rocket 4.4 12:25:30 10° SSW 12:31:48 67° W 12:38:08 10° N
Cosmos 2181 Rocket 4.2 12:26:03 10° S 12:32:23 49° ESE 12:33:35 44° ENE
STARLINK-72 3.8 12:28:19 10° SW 12:32:06 57° SSE 12:32:06 57° SSE
Cosmos 371 Rocket 3.7 12:28:06 10° NNW 12:32:58 65° WSW 12:37:55 10° SSE
Cosmos 1833 Rocket 2.7 12:27:27 10° SSW 12:33:06 61° ESE 12:34:07 52° ENE
STARLINK-58 4.1 12:30:46 10° WSW 12:33:22 41° WNW 12:33:22 41° WNW
STARLINK-50 3.8 12:30:00 10° SW 12:33:43 58° S 12:33:43 58° S
STARLINK-1171 4.4 12:30:26 10° NNW 12:33:23 39° N 12:33:23 39° N
COSMOS 2406 3.3 12:29:41 10° SSW 12:35:26 77° WNW 12:38:38 27° NNE
STARLINK-59 3.8 12:31:43 10° SW 12:35:25 60° S 12:35:25 60° S
STARLINK-1149 4.5 12:32:56 10° WNW 12:36:30 39° SSW 12:37:04 36° S
STARLINK-56 3.9 12:33:17 10° SW 12:36:53 58° S 12:36:53 58° S
Cosmos 1110 Rocket 3.8 12:32:14 10° N 12:37:22 69° ENE 12:40:04 29° SSE
STARLINK-73 3.9 12:34:55 10° SW 12:38:27 58° S 12:38:27 58° S
FALCON 9 R/B 3.2 12:33:48 10° NW 12:38:46 24° N 12:38:46 24° N
STARLINK-38 3.9 12:36:35 10° SW 12:40:04 57° SSW 12:40:04 57° SSW
SL-23 DEB 4.4 12:38:22 10° SW 12:40:41 46° SW 12:40:41 46° SW
STARLINK-1048 4.0 12:38:05 10° SW 12:41:42 57° SSW 12:41:42 57° SSW
STARLINK-65 4.0 12:38:15 10° SW 12:41:40 56° SSW 12:41:40 56° SSW
Cosmos 1741 Rocket 4.1 12:37:57 10° SSW 12:43:16 78° WNW 12:45:10 41° N
Cosmos 1340 Rocket 4.3 12:39:52 10° SSW 12:43:41 37° W 12:47:29 10° NNW
STARLINK-1014 4.2 12:39:41 10° SW 12:42:53 50° SSW 12:42:53 50° SSW
STARLINK-53 4.0 12:39:58 10° SW 12:43:21 57° SSW 12:43:21 57° SSW
Cosmos 2058 Rocket 4.0 12:42:24 10° SSW 12:46:45 49° W 12:50:16 15° NNW
STARLINK-1010 3.9 12:42:26 10° SW 12:46:11 66° SW 12:46:11 66° SW
STARLINK-1049 4.2 12:43:03 10° SW 12:46:29 55° SSW 12:46:29 55° SSW
CSL-04 Rocket 3.6 12:44:04 10° SSE 12:49:39 85° WSW 12:55:04 10° NNW
CZ-4 R/B 2.9 12:46:02 10° S 12:49:53 37° WSW 12:53:36 10° NW
Cosmos 2278 Rocket 2.6 12:45:46 10° NW 12:51:24 62° WSW 12:57:05 10° SSE
Cosmos 1300 4.2 12:47:43 10° S 12:49:53 32° SSW 12:49:53 32° SSW
STARLINK-1051 4.3 12:48:02 10° SW 12:51:16 51° SW 12:51:16 51° SW
Cosmos 1939 Rocket 4.2 12:50:25 10° S 12:54:22 41° WSW 12:58:14 10° NW
USA 267 4.4 12:59:18 26° SE 13:00:33 28° SSE 13:05:59 10° SW
USA 229 DEB 3.9 12:56:17 10° NW 13:03:56 78° SW 13:10:07 16° SSE
USA 229 3.9 12:56:23 10° NW 13:04:04 79° SW 13:10:08 17° SSE
Cosmos 1607 4.0 13:03:55 10° SW 13:10:07 68° WNW 13:10:49 63° NNW
NOSS 3-1 (A) 4.0 13:04:43 10° NNW 13:13:34 86° ENE 13:17:33 35° SE
BREEZE-M DEB (TANK) 4.0 13:15:28 10° W 13:18:56 45° S 13:19:29 44° SSE
Exosat Rocket 4.3 13:28:13 10° SSW 13:32:51 62° WSW 13:32:51 62° WSW
Cosmos 2082 Rocket 3.9 13:57:47 10° SW 14:00:59 29° WSW 14:00:59 29° WSW
Lacrosse 5 4.5 14:04:54 10° WSW 14:07:12 16° SSW 14:07:12 16° SSW
Cosmos 2360 Rocket 4.4 19:32:20 22° SE 19:32:20 22° SE 19:34:28 10° SE
Cosmos 2322 Rocket 4.4 19:37:08 19° SSE 19:37:08 19° SSE 19:38:39 10° SSE
Cosmos 2333 Rocket 4.5 19:40:53 17° ENE 19:41:10 18° E 19:44:50 10° ESE
CZ-4C R/B 3.3 19:59:27 55° SSE 19:59:27 55° SSE 20:04:46 10° SSE
SL-16 R/B 4.0 19:56:48 10° S 19:59:43 29° S 19:59:43 29° S
CZ-3A R/B 4.4 20:04:52 36° SSW 20:04:52 36° SSW 20:09:56 10° SE
Cosmos 2219 Rocket 3.2 20:27:26 38° NE 20:28:19 41° ENE 20:33:37 10° SE
Cosmos 2026 Rocket 4.1 20:24:51 10° S 20:31:17 72° E 20:37:31 10° NNE
Cosmos 1634 Rocket 3.9 20:34:37 83° SE 20:34:37 83° SE 20:40:48 10° S
USA 229 DEB 4.4 20:31:01 12° SSW 20:37:20 50° SE 20:43:40 10° ENE
USA 229 4.4 20:31:04 11° SSW 20:37:27 49° SE 20:43:47 10° ENE
Cosmos 1844 Rocket 3.3 20:41:24 46° NNE 20:41:24 46° NNE 20:45:15 10° NNE
Cosmos 1428 Rocket 4.5 20:35:47 10° S 20:42:01 78° E 20:48:10 10° N
Cosmos 2322 3.7 20:44:34 79° SSE 20:44:34 79° SSE 20:49:58 10° SSE
COSMOS 2428 3.3 20:42:55 40° NNE 20:44:29 52° ENE 20:50:03 10° SSE
Cosmos 2333 4.1 20:48:33 89° E 20:48:33 89° E 20:54:23 10° SSE
Cosmos 2142 Rocket 4.4 20:51:02 51° N 20:52:45 88° E 20:58:59 10° S
Landsat 5 4.2 20:50:41 10° SSE 20:54:13 52° SE 20:54:13 52° SE
STARLINK-1138 4.5 20:57:35 49° SE 20:57:35 49° SE 21:00:44 10° SE
METEOR-M 4.5 20:51:39 10° NNE 20:56:58 65° ESE 21:02:21 10° S
USA 215 3.4 20:52:34 10° ENE 20:59:08 75° SE 21:03:17 25° SW
CZ-3A R/B 4.4 20:55:26 21° N 20:59:20 30° NNE 21:19:04 10° ENE
STARLINK-1143 4.2 21:02:21 55° SE 21:02:21 55° SE 21:05:42 10° SE
FENGYUN 3A 3.7 20:58:20 10° NNE 21:03:43 78° ESE 21:09:12 10° S
Cosmos 1680 Rocket 4.2 21:05:52 39° SSW 21:05:52 39° SSW 21:09:53 10° S
STARLINK-1241 4.0 21:07:11 59° SSE 21:07:11 59° SSE 21:10:42 10° SE
SL-16 R/B 4.1 21:10:11 15° SSW 21:10:11 15° SSW 21:12:12 10° S
STARLINK-1239 3.9 21:11:55 62° S 21:11:55 62° S 21:15:39 10° SE
Cosmos 2360 Rocket 3.2 21:14:08 30° SW 21:14:08 30° SW 21:18:17 10° S
NOSS 3-1 (C) 3.2 21:09:44 15° SSW 21:15:06 85° SE 21:20:33 10° NE
CZ-4B R/B 2.9 21:12:17 10° SSE 21:15:25 37° E 21:17:20 20° NNE
STARLINK-1240 3.8 21:16:43 62° S 21:16:43 62° S 21:20:37 10° SE
Cosmos 2322 Rocket 4.0 21:18:58 16° SSW 21:18:58 16° SSW 21:21:16 10° S
MOS 1-B 4.4 21:13:43 10° NNE 21:19:30 79° ESE 21:25:22 10° SSW
STARLINK-1216 3.8 21:21:31 59° SSW 21:21:31 59° SSW 21:25:37 10° SE
Cosmos 2279 Rocket 3.9 21:19:25 22° NNW 21:23:34 65° W 21:29:52 10° S
Cosmos 1300 Rocket 4.3 21:20:25 10° N 21:24:42 53° E 21:29:06 10° SSE
Cosmos 2333 Rocket 2.2 21:22:56 42° NW 21:24:48 65° WSW 21:30:36 10° SSE
STARLINK-1237 3.8 21:26:17 54° SW 21:26:24 54° SW 21:30:34 10° SE
Sich 1 Rocket 3.5 21:27:02 48° NW 21:28:08 66° W 21:32:44 10° S
Okean 2 Rocket 3.3 21:24:26 10° N 21:28:57 75° E 21:33:32 10° S
Cosmos 2151 Rocket 4.5 21:25:43 10° NNE 21:30:02 51° E 21:34:28 10° SSE
STARLINK-1202 3.9 21:31:03 49° SW 21:31:23 50° SSW 21:35:31 10° SE
Cosmos 2237 Rocket 3.0 21:28:40 10° N 21:34:11 52° ENE 21:39:44 10° SSE
Okean O Rocket 2.5 21:30:41 10° NNE 21:35:03 52° ESE 21:39:28 10° S
STARLINK-1125 4.4 21:33:13 25° SSW 21:35:20 49° SSE 21:39:25 10° ENE
ATLAS 3B CENTAUR R/B 4.2 21:31:42 21° NW 21:35:42 30° N 21:48:13 10° NE
Cosmos 1975 Rocket 3.2 21:33:49 10° SSW 21:38:03 46° W 21:42:12 10° NNW
STARLINK-1203 4.2 21:38:29 39° SW 21:39:10 42° SSW 21:43:15 10° SE
H-2A R/B 3.2 21:35:27 10° S 21:38:46 29° SW 21:38:46 29° SW
Cosmos 1371 Rocket 4.3 21:35:12 10° SSW 21:40:13 44° WNW 21:45:14 10° N
STARLINK-1109 4.3 21:38:00 24° SW 21:40:20 53° SSE 21:44:26 10° ENE
ALOS 2.5 21:36:12 10° N 21:40:42 46° W 21:45:17 10° SSW
STARLINK-1246 4.1 21:40:39 39° WSW 21:41:24 43° SSW 21:45:27 10° SE
STARLINK-1066 2.7 21:41:28 78° WNW 21:41:35 80° NW 21:44:42 10° NE
STARLINK-1081 2.7 21:41:51 74° W 21:42:02 79° NW 21:45:11 10° NE
STARLINK-1070 2.7 21:42:17 73° W 21:42:29 79° NW 21:45:39 10° NE
STARLINK-1069 2.7 21:42:46 73° W 21:42:57 78° NW 21:46:05 10° NE
STARLINK-1085 2.7 21:43:13 72° W 21:43:24 77° NW 21:46:32 10° NE
Cosmos 1624 Rocket 4.2 21:38:24 10° SSW 21:43:27 46° WNW 21:48:25 10° N
Cosmos 1707 4.0 21:39:57 10° S 21:43:43 43° ESE 21:47:24 10° NNE
STARLINK-1086 2.7 21:43:34 69° W 21:43:50 76° NW 21:46:59 10° NE
STARLINK-1095 2.7 21:44:01 68° W 21:44:18 75° NW 21:47:26 10° NE
STARLINK-1077 2.7 21:44:27 67° W 21:44:45 74° NW 21:47:54 10° NE
STARLINK-1075 2.8 21:44:53 65° W 21:45:11 74° NW 21:48:20 10° NE
CZ-4B R/B 3.5 21:39:33 10° NNE 21:45:13 76° ESE 21:50:57 10° S
STARLINK-1091 4.2 21:42:46 22° SW 21:45:18 57° SE 21:49:26 10° ENE
SL-16 R/B 4.4 21:43:27 10° SW 21:44:48 11° SW 21:44:48 11° SW
STARLINK-1093 2.7 21:45:22 66° W 21:45:38 72° NW 21:48:45 10° NE
Cosmos 2278 Rocket 2.7 21:40:07 10° SSW 21:45:47 62° ESE 21:51:24 10° NE
STARLINK-1074 2.7 21:45:49 64° W 21:46:07 72° NW 21:49:13 10° NE
STARLINK-1224 4.3 21:45:25 35° WSW 21:46:23 40° SSW 21:50:24 10° SE
STARLINK-1087 2.8 21:46:11 62° W 21:46:32 71° NW 21:49:41 10° NE
STARLINK-1088 2.8 21:46:37 61° W 21:46:59 70° NW 21:50:08 10° NE
CZ-4C R/B 4.1 21:44:39 20° WSW 21:47:08 23° SW 21:52:27 10° SSE
STARLINK-1115 2.8 21:47:06 61° W 21:47:27 69° NW 21:50:34 10° NE
STARLINK-1076 2.8 21:47:31 60° W 21:47:53 68° NW 21:50:59 10° NE
STARLINK-1092 2.8 21:47:58 59° W 21:48:20 68° NW 21:51:28 10° NE
STARLINK-1080 2.8 21:48:21 56° W 21:48:47 67° NW 21:51:55 10° NE
STARLINK-1090 2.8 21:48:48 55° W 21:49:15 66° NW 21:52:24 10° NE
STARLINK-1089 2.8 21:49:13 54° W 21:49:41 65° NW 21:52:49 10° NE
Radarsat Rocket 4.3 21:43:58 10° NNE 21:50:06 80° ESE 21:57:02 10° SSW
STARLINK-1107 2.8 21:49:39 54° W 21:50:09 65° NW 21:53:17 10° NE
STARLINK-1072 4.0 21:47:36 21° SW 21:50:21 63° SE 21:54:31 10° ENE
Cosmos 1844 4.3 21:47:12 19° SW 21:50:22 33° WNW 21:55:18 10° NNW
STARLINK-1225 4.4 21:50:13 31° WSW 21:51:25 38° SSW 21:55:23 10° SE
TIMED 4.4 21:49:48 10° NNW 21:54:12 83° WSW 21:58:39 10° SSE
STARLINK-1096 3.9 21:52:25 19° SW 21:55:21 68° SE 21:59:32 10° ENE
STARLINK-1230 4.5 21:55:00 28° WSW 21:56:24 35° SSW 22:00:19 10° SE
Meteor 2-9 Rocket 4.4 21:53:35 10° NNW 21:59:03 48° WSW 22:04:28 10° S
CRYOSAT 2 4.3 21:54:11 10° N 21:59:04 67° W 22:04:02 10° S
STARLINK-1079 3.8 21:57:10 17° SW 22:00:18 74° SE 22:04:30 10° ENE
Cosmos 1975 4.0 22:00:36 24° WSW 22:00:36 24° WSW 22:03:55 10° SSW
Cosmos 1420 Rocket 4.0 21:59:30 10° SSW 22:04:47 63° WNW 22:10:01 10° N
STARLINK-1116 3.7 22:01:56 16° SW 22:05:17 81° SE 22:09:29 10° NE
Cosmos 1242 Rocket 3.4 22:01:57 10° S 22:05:37 54° ESE 22:09:10 10° NNE
NOSS 2-3 (E) 4.2 22:00:44 10° SW 22:07:29 76° WNW 22:12:37 10° NNE
ISS -1.6 22:06:43 10° SSW 22:09:28 21° SSE 22:12:13 10° ESE
NOSS 0 Rocket 3.9 22:03:28 10° NW 22:09:37 67° WSW 22:15:53 10° SSE
SJ-7 4.4 22:06:03 10° N 22:10:08 63° W 22:14:21 10° SSW
Envisat 4.0 22:05:49 10° NE 22:10:44 51° ESE 22:15:44 10° S
Cosmos 1544 4.4 22:11:57 20° W 22:12:11 20° WSW 22:15:04 10° SSW
Cosmos 2219 Rocket 3.1 22:09:13 18° WNW 22:12:22 30° SW 22:17:20 10° S
Cosmos 2056 Rocket 4.5 22:10:21 10° SW 22:14:48 26° W 22:19:13 10° NNW
STARLINK-1094 3.6 22:11:30 13° SW 22:15:14 85° NW 22:19:26 10° NE
Helios 1A Rocket 3.0 22:13:10 10° NNE 22:17:17 83° ESE 22:21:31 10° SSW
Okean 1 Rocket 3.3 22:13:57 10° N 22:18:26 77° E 22:23:01 10° S
Cosmos 1025 Rocket 3.2 22:15:03 10° SSW 22:19:23 53° W 22:23:41 10° N
STARLINK-1117 3.6 22:16:18 12° SW 22:20:13 78° NW 22:24:24 10° NE
Cosmos 1689 Rocket 2.4 22:18:47 10° S 22:21:46 44° WSW 22:24:41 10° NNW
Cosmos 1844 Rocket 4.3 22:23:18 13° WNW 22:23:18 13° WNW 22:25:10 10° WNW
NOSS 2-3 (D) 4.3 22:18:08 10° SW 22:24:43 60° WNW 22:29:45 10° NNE
STARLINK-1078 3.6 22:21:05 11° SW 22:25:11 71° NW 22:29:21 10° NE
Abrixas rocket 2.8 22:25:02 16° W 22:27:02 37° SSW 22:29:54 10° SE
USA 229 DEB 4.2 22:22:05 10° SW 22:27:59 33° WNW 22:33:39 10° N
USA 229 4.2 22:22:12 10° SW 22:28:07 33° WNW 22:33:48 10° N
COSMOS 2428 3.8 22:25:00 12° WNW 22:29:03 25° SW 22:33:44 10° S
STARLINK-1108 3.7 22:26:00 10° WSW 22:30:10 64° NW 22:34:19 10° NE
GP-B 3.2 22:26:09 10° N 22:30:38 85° E 22:35:11 10° S
YAOGAN 6 3.6 22:27:12 10° NNE 22:30:40 51° ESE 22:34:11 10° S
Cosmos 1048 Rocket 4.1 22:25:47 10° NNW 22:31:06 61° WSW 22:36:25 10° SSE
Cosmos 2098 Rocket 3.6 22:25:21 10° S 22:31:35 85° W 22:36:25 10° N
Cosmos 2266 Rocket 4.4 22:26:04 10° SSW 22:31:48 41° W 22:37:36 10° NNW
STARLINK-1071 3.8 22:30:58 10° WSW 22:35:06 58° NW 22:39:13 10° NE
Cosmos 1536 Rocket 4.1 22:31:34 10° SSW 22:35:46 38° W 22:39:55 10° NNW
Cosmos 1980 4.0 22:31:09 10° NW 22:36:35 46° WSW 22:42:05 10° SSE
NOSS 3-1 (A) 3.7 22:32:05 10° SW 22:37:40 38° WNW 22:42:37 10° N
STARLINK-1110 3.9 22:35:58 10° WSW 22:40:05 52° NW 22:44:09 10° NNE
USA 215 4.1 22:36:51 10° N 22:42:29 30° NW 22:48:11 10° WSW
STARLINK-1124 4.0 22:40:59 10° WSW 22:45:03 47° NW 22:49:04 10° NNE
CORIOLIS 4.2 22:41:20 10° N 22:46:42 71° WNW 22:52:08 10° SSW
CZ-4B R/B 3.4 22:46:06 10° SW 22:47:24 12° WSW 22:48:43 10° W
STARLINK-1122 4.1 22:45:58 10° WSW 22:49:59 43° NW 22:53:57 10° NNE
Cosmos 1452 Rocket 4.2 22:45:43 10° SW 22:50:28 34° W 22:55:10 10° NNW
Cosmos 371 Rocket 3.7 22:46:20 10° SSW 22:50:58 43° WNW 22:55:32 10° N
Meteor 2-5 Rocket 4.3 22:45:59 10° S 22:51:58 70° E 22:57:56 10° NNE
CZ-3 R/B 3.6 22:35:26 10° W 22:54:10 35° NNW 23:00:26 10° NNE
BREEZE-M R/B 4.3 22:50:01 10° WSW 23:00:46 89° NW 23:05:31 10° NE
